sat.trackr.live / text

‹ back to catalog

STARLINK-2576

NORAD 48400 · 2021-038AZ

PAYLOAD ACTIVE UNKNOWN

§ Identity

Operator
Country
US
Launch date
2021-05-04
Launch site
AFETR
Launch vehicle
Mass (kg)
RCS (m²)

Purposes: comms

External: N2YO · Heavens-Above · Gunter

§ Orbital elements

Epoch: 2026-09-13T01:57:23.219136Z

Period
94.01 min
Inclination
53.1582°
Eccentricity
0.0001280
Mean motion
15.31690278 rev/d
Perigee alt
469.9 km
Apogee alt
471.6 km
Semi-major
6,848.9 km
B*
6.7674e-5
RAAN
180.7876°
Arg perigee
93.3570°
Mean anomaly
266.7578°
Rev number
29,615

§ Raw data

STARLINK-25761 48400U 21038AZ  26256.08151874  .00001735  00000+0  67674-4 0  99942 48400  53.1582 180.7876 0001280  93.3570 266.7578 15.31690278296153

JSON: /api/v1/satellites/48400 · /tle

For live sub-satellite position, see the globe view (requires WebGL).

§ Visibility from observer

Set your observer location to see the next 7 days of passes ≥ 10°. The values pass through the URL so the page stays shareable.

No JS? Fill the form by hand. The geolocation button needs JavaScript.